Regional Weather Roundup
Issued by NWS Cleveland, OH

Home | Current Version | Previous Version | Text Only | Print | Product List | Glossary Off
Versions: 1 2 3 4 5 6 7 8 9 10 11 12 13 14 15 16 17 18 19 20 21 22 23 24 25 26 27 28 29 30 31 32 33 34 35 36 37 38 39 40 41 42 43 44 45 46 47 48 49 50

000
ASUS41 KCLE 262010
RWRCLE
OHIO REGIONAL WEATHER ROUNDUP
NATIONAL WEATHER SERVICE CLEVELAND, OH
400 PM EDT MON JUN 26 2017

NOTE: "FAIR" INDICATES FEW OR NO CLOUDS BELOW 12,000 FEET WITH NO
SIGNIFICANT WEATHER AND/OR OBSTRUCTIONS TO VISIBILITY.

OHZ001>008-015>018-024>027-034-035-043-044-262100-
   NORTHWEST OHIO

CITY           SKY/WX    TMP DP  RH WIND       PRES   REMARKS
DEFIANCE       CLOUDY    67  43  41 VRB7      30.04F
FINDLAY        PTSUNNY   71  43  36 W14G23    30.03F
TOLEDO EXPRESS LGT RAIN  67  46  47 W10       30.02F
TOLEDO EXEC    PTSUNNY   71  45  39 W14G24    30.03F
LIMA           CLOUDY    69  45  41 W18       30.06F
$$

OHZ009>014-019>023-028>033-038-089-262100-
   NORTHEAST OHIO

CITY           SKY/WX    TMP DP  RH WIND       PRES   REMARKS
CLE-HOPKINS    PTSUNNY   72  49  44 W15G22    30.05S
CLE-LAKEFRONT  MOSUNNY   70  52  52 W13       30.02S
CUY CO. ARPT   MOSUNNY   70  52  52 W12       30.04S
LORAIN-ELYRIA  CLOUDY    69  44  40 NW9       30.04S
ASHTABULA      MOSUNNY   68  45  43 W20G30    30.03S
AKRON-CANTON   PTSUNNY   70  46  42 W16G23    30.04F
WOOSTER        MOSUNNY   71  43  36 W14       30.05F
MANSFIELD      CLOUDY    69  46  43 SW14G21   30.07R
YOUNGSTOWN     LGT RAIN  64  49  57 NW12G28   30.03S
$$

OHZ042-051>053-060>062-070>072-077>081-262100-
  SOUTHWEST OHIO

CITY           SKY/WX    TMP DP  RH WIND       PRES   REMARKS
CINC-COVINGTON PTSUNNY   74  48  39 W14G24    30.12F
CINC-LUNKEN    PTSUNNY   75  51  43 W9        30.11F
HAMILTON       SUNNY     75  49  39 NW13      30.11F
DAYTON         PTSUNNY   73  46  38 W13       30.10F
WRIGHT-PAT AFB MOSUNNY   73  46  37 W12       30.09F
DAYTON GENERAL PTSUNNY   71  45  39 W9        30.10F
WILMINGTON     SUNNY     71  49  45 W8        30.11F
$$

OHZ036-037-039>041-045>050-054>059-063>069-073>076-082>088-262100-
  CENTRAL AND SOUTHEAST OHIO

CITY           SKY/WX    TMP DP  RH WIND       PRES   REMARKS
COLUMBUS       CLOUDY    72  47  40 W16       30.08F
OSU AIRPORT    PTSUNNY   69  48  47 W14G21    30.08F
BOLTON FIELD   PTSUNNY   70  46  43 W8G16     30.10F
RICKENBACK AFB CLOUDY    71  45  40 W16       30.09S
NEWARK         PTSUNNY   70  43  37 W9        30.08S
MARION         PTSUNNY   70  42  36 W16       30.07F
LANCASTER      MOSUNNY   69  48  47 W13G20    30.11S
ZANESVILLE     MOSUNNY   71  49  45 SW13G21   30.09R
NEW PHILLY     NOT AVBL
$$




USA.gov is the U.S. government's official web portal to all federal, state and local government web resources and services.